Back to catalog

CZ-6A DEB

AliveSSO
NORAD 56638·DEBRIS·🇨🇳 China

Launched Nov 11, 2022 from Taiyuan Satellite Launch Center

Loading…

Next Passes (next 24 hours)

TLE

AgingSource: Space-Track

Epoch: Sep 10, 2026, 07:38 UTC

1 56638U 22151AFN 26253.31805641  .00000367  00000-0  19658-3 0  9993
2 56638  98.8227 273.1274 0050851 117.0174 243.6205 14.18454647174864

Track CZ-6A DEB in real time with AllMySat

Download on the App Store